{"data":{"norad_id":64526,"intl_designator":"2025-134AC","name":"KUIPER-00066","alt_names":[],"object_type":"PAYLOAD","status":"ACTIVE","operator":null,"country":"US","launch_date":"2025-06-23","launch_site_code":"AFETR","launch_vehicle":null,"mission":null,"orbit_class":"UNKNOWN","rcs_meters":null,"size_class":null,"mass_kg":null,"dimensions":null,"purposes":[],"wikipedia_slug":null,"has_3d_model":false,"image_url":null,"decayed_at":null,"tle_current":{"epoch":"2026-05-24T21:31:42.484800Z","epoch_age_seconds":80785,"freshness":"FRESH","line1":"1 64526U 25134AC  26144.89701950  .00000457  00000+0  88953-4 0  9996","line2":"2 64526  51.9008 201.0053 0000215 358.7282   1.3679 14.79934272 52137","mean_motion":14.79934272,"eccentricity":2.15e-5,"inclination_deg":51.9008,"raan_deg":201.0053,"arg_perigee_deg":358.7282,"mean_anomaly_deg":1.3679,"bstar":8.8953e-5,"rev_number":5213,"period_min":97.30161854107,"perigee_km":629.38094891388,"apogee_km":629.68227866427,"semimajor_km":7007.6686137891,"source":"CELESTRAK","updated_at":"2026-05-25T13:38:04.579013Z"}}}